Location: Dallas
(32.7833°N, 96.8000°W)
Time: 10:24:42
(UTC-06:00)

Envisat - Pass Details

Date: 26 October 2019
Orbit: 764 x 766 km, 98.1° (Epoch: 20 November)

Event Time Altitude Azimuth Distance (km) Brightness Sun altitude
Rises 20:23:33 0° 193° (SSW) 3,216 6.4 -21.9°
Reaches altitude 10° 20:26:08 10° 204° (SSW) 2,294 5.8 -22.5°
Maximum altitude 20:30:28 28° 263° (W) 1,396 5.0 -23.4°
Drops below altitude 10° 20:34:49 10° 323° (NW) 2,306 5.9 -24.3°
Sets 20:37:26 0° 334° (NNW) 3,235 6.6 -24.8°
